Location: Cz?stochówka
(50.8142°N, 19.0915°E)
Time: 09:25:04
(UTC+00:00)

ATLAS 2AS CENTAUR R/B - Pass Details

Date: 13 January 2026
Orbit: 1050 x 1161 km, 63.7° (Epoch: 18 February)

Event Time Altitude Azimuth Distance (km) Brightness Sun altitude
Exits shadow 03:19:11 33° 355° (N) 1,711 3.7 -31.1°
Maximum altitude 03:20:50 37° 24° (NNE) 1,583 3.7 -30.8°
Drops below altitude 10° 03:27:02 10° 91° (E) 2,867 5.9 -29.8°
Sets 03:29:54 0° 99° (E) 3,821 6.8 -29.4°
